Location: Lussas
(44.6119°N, 4.4726°E)
Time: 20:53:01
(UTC+00:00)

H-2A R/B - Pass Details

Date: 26 November 2020
Orbit: 499 x 540 km, 97.3° (Epoch: 22 January)

Event Time Altitude Azimuth Distance (km) Brightness Sun altitude
Rises 05:15:50 0° 14° (NNE) 2,711 6.4 -16.9°
Reaches altitude 10° 05:17:58 10° 16° (NNE) 1,813 5.5 -16.6°
Maximum altitude 05:21:53 72° 101° (E) 571 3.0 -15.9°
Drops below altitude 10° 05:25:45 10° 186° (S) 1,785 5.5 -15.2°
Sets 05:27:50 0° 189° (S) 2,665 6.4 -14.9°
